Weather History for 94767 - September, 2013

Change the Weather History Date:

Saturday, September 7, 2013

  Actual Average Record
Temperature  
Mean Temperature 74 °F -  
Max Temperature 89 °F 70 °F - ()
Min Temperature 60 °F 51 °F - ()
Cooling Degree Days 10    
Growing Degree Days 24 (Base 50)    
Moisture  
Dew Point 58 °F    
Average Humidity 73    
Maximum Humidity 94    
Minimum Humidity 13    
Precipitation  
Precipitation 0.00 in 0.08 in - ()
Sea Level Pressure  
Sea Level Pressure 30.15 in    
Wind  
Wind Speed 9 mph ()    
Max Wind Speed 21 mph    
Max Gust Speed 30 mph    
Visibility 6.3 miles    
Events      
T = Trace of Precipitation, MM = Missing Value Source: Averaged Metar Reports

Daily Weather History Graph

Daily Weather History Graph

Search for Another Location

Airport or City:

Trip Planner

Search our weather history database for the weather conditions in past years. The results will help you decide how hot, cold, wet, or windy it might be!

Date:

Astronomy

Sep. 07, 2013 Rise Set
Actual Time 6:06 AM AEST 5:41 PM AEST
Civil Twilight 5:41 AM AEST 6:06 PM AEST
Nautical Twilight 5:12 AM AEST 6:35 PM AEST
Astronomical Twilight 4:43 AM AEST 7:04 PM AEST
Moon 6:40 AM AEST (9/7) 7:27 PM AEST (9/7)
Length of Visible Light 12h 25m
Length of Day
11h 35m
Waxing Crescent, 3% of the Moon is Illuminated
Sep 7
Waxing Crescent
Sep 13
First Quarter
Sep 19
Full
Sep 27
Last Quarter
Oct 5
New

Hourly Weather History & Observations

Time (AEST) Temp. Dew Point Humidity Pressure Visibility Wind Dir Wind Speed Gust Speed Precip Events Conditions
12:00 AM 64 °F 62 °F 91% 30.21 in 6 mi SW 4.6 mph - -   Mist
12:00 AM 64.4 °F 62.6 °F 94% 30.18 in 6.2 mi SW 4.6 mph - N/A   Scattered Clouds
12:30 AM 64.4 °F 60.8 °F 88% 30.18 in 6.2 mi SW 3.5 mph - N/A   Scattered Clouds
1:00 AM 65 °F 61 °F 83% 30.19 in - NW 4.6 mph - -  
1:00 AM 66.2 °F 60.8 °F 83% 30.18 in - NW 4.6 mph - N/A   Clear
1:30 AM 64.4 °F 60.8 °F 88% 30.15 in - NW 5.8 mph - N/A   Clear
2:00 AM 64 °F 60 °F 84% 30.17 in - NW 6.9 mph - -  
2:00 AM 64.4 °F 60.8 °F 88% 30.15 in 6.2 mi NW 6.9 mph - N/A   Scattered Clouds
2:30 AM 62.6 °F 59.0 °F 88% 30.15 in - NW 6.9 mph - N/A   Clear
3:00 AM 62 °F 59 °F 88% 30.16 in 6 mi NW 8.1 mph - -   Haze
3:00 AM 62.6 °F 59.0 °F 88% 30.15 in - NW 8.1 mph - N/A   Clear
3:30 AM 62.6 °F 59.0 °F 88% 30.12 in - NW 8.1 mph - N/A   Clear
4:00 AM 62 °F 59 °F 87% 30.15 in - NW 6.9 mph - -  
4:00 AM 62.6 °F 59.0 °F 88% 30.12 in - NW 6.9 mph - N/A   Clear
4:30 AM 62.6 °F 59.0 °F 88% 30.12 in 5.6 mi NW 6.9 mph - N/A   Unknown
5:00 AM 61 °F 59 °F 90% 30.16 in - West 5.8 mph - -  
5:00 AM 60.8 °F 59.0 °F 94% 30.15 in 5.0 mi West 5.8 mph - N/A   Unknown
5:30 AM 62.6 °F 59.0 °F 88% 30.15 in 5.6 mi NW 5.8 mph - N/A   Unknown
6:00 AM 62 °F 58 °F 83% 30.17 in 5 mi NW 4.6 mph - -   Haze
6:00 AM 60.8 °F 59.0 °F 94% 30.15 in 5.0 mi NW 4.6 mph - N/A   Unknown
6:30 AM 62.6 °F 57.2 °F 82% 30.15 in 5.6 mi NNW 6.9 mph - N/A   Unknown
7:00 AM 63 °F 58 °F 78% 30.19 in - NW 6.9 mph - -  
7:00 AM 62.6 °F 57.2 °F 82% 30.18 in - NW 6.9 mph - N/A   Clear
7:30 AM 62.6 °F 57.2 °F 82% 30.18 in 5.6 mi NW 6.9 mph - N/A   Unknown
8:00 AM 65 °F 57 °F 69% 30.21 in - NNW 4.6 mph - -  
8:00 AM 66.2 °F 57.2 °F 73% 30.18 in 5.6 mi NNW 4.6 mph - N/A   Unknown
8:30 AM 68.0 °F 53.6 °F 60% 30.18 in 5.6 mi NW 8.1 mph - N/A   Unknown
9:00 AM 71 °F 52 °F 40% 30.19 in 6 mi NNW 10.4 mph - -   Smoke
9:00 AM 71.6 °F 51.8 °F 50% 30.18 in 5.6 mi NNW 10.4 mph - N/A   Unknown
9:30 AM 73.4 °F 50.0 °F 44% 30.15 in - NW 9.2 mph - N/A   Clear
10:00 AM 77 °F 50 °F 28% 30.17 in - NW 9.2 mph - -  
10:00 AM 77.0 °F 50.0 °F 39% 30.15 in - NW 9.2 mph - N/A   Clear
10:30 AM 78.8 °F 50.0 °F 36% 30.15 in - WNW 6.9 mph - N/A   Clear
11:00 AM 82 °F 44 °F 16% 30.16 in - West 5.8 mph - -  
11:00 AM 82.4 °F 44.6 °F 26% 30.15 in - West 5.8 mph - N/A   Clear
11:30 AM 75.2 °F 57.2 °F 53% 30.12 in - SSE 6.9 mph - N/A   Clear
12:00 PM 78.8 °F 48.2 °F 34% 30.12 in - SE 5.8 mph - N/A   Clear
12:30 PM 80.6 °F 48.2 °F 32% 30.09 in - SE 6.9 mph - N/A   Clear
1:00 PM 80.6 °F 51.8 °F 37% 30.09 in - SE 8.1 mph - N/A   Clear
1:30 PM 84.2 °F 48.2 °F 29% 30.06 in - ESE 9.2 mph - N/A   Clear
2:00 PM 85 °F 47 °F 17% 30.07 in - East 11.5 mph - -  
2:00 PM 86.0 °F 46.4 °F 25% 30.06 in - East 11.5 mph - N/A   Clear
2:30 PM 89.6 °F 32.0 °F 13% 30.06 in - ENE 10.4 mph - N/A   Clear
3:00 PM 71 °F 62 °F 67% 30.06 in 16 mi South 16.1 mph - -   Haze
3:00 PM 71.6 °F 62.6 °F 73% 30.04 in - South 16.1 mph - N/A   Clear
3:30 PM 69.8 °F 62.6 °F 78% 30.06 in - SSE 18.4 mph - N/A   Clear
4:00 PM 69 °F 63 °F 75% 30.09 in - South 19.6 mph - -  
4:00 PM 69.8 °F 62.6 °F 78% 30.09 in - South 19.6 mph - N/A   Clear
4:15 PM 69.8 °F 64.4 °F 83% 30.09 in - South 18.4 mph 29.9 mph N/A   Clear
4:30 PM 68.0 °F 64.4 °F 88% 30.09 in - South 20.7 mph - N/A   Clear
5:00 PM 67 °F 63 °F 82% 30.12 in - South 18.4 mph - -  
5:00 PM 68.0 °F 62.6 °F 83% 30.12 in 6.2 mi South 18.4 mph - N/A   Mostly Cloudy
5:30 PM 66.2 °F 62.6 °F 88% 30.12 in 6.2 mi South 17.3 mph - N/A   Mostly Cloudy
6:00 PM 66 °F 62 °F 82% 30.15 in 8 mi South 17.3 mph - -   Scattered Clouds
6:00 PM 66.2 °F 62.6 °F 88% 30.12 in 6.2 mi South 17.3 mph - N/A   Mostly Cloudy
6:30 PM 66.2 °F 62.6 °F 88% 30.15 in 6.2 mi South 16.1 mph - N/A   Mostly Cloudy
7:00 PM 66 °F 62 °F 84% 30.18 in - South 16.1 mph - -  
7:00 PM 66.2 °F 62.6 °F 88% 30.18 in 6.2 mi South 16.1 mph - N/A   Mostly Cloudy
7:30 PM 66.2 °F 62.6 °F 88% 30.18 in 6.2 mi South 19.6 mph - N/A   Scattered Clouds
8:00 PM 66 °F 61 °F 80% 30.20 in - South 18.4 mph - -  
8:00 PM 66.2 °F 60.8 °F 83% 30.18 in 6.2 mi South 18.4 mph - N/A   Mostly Cloudy
8:30 PM 66.2 °F 62.6 °F 88% 30.18 in 6.2 mi South 18.4 mph - N/A   Mostly Cloudy
9:00 PM 65 °F 62 °F 88% 30.21 in 8 mi South 19.6 mph - -   Haze
9:00 PM 66.2 °F 62.6 °F 88% 30.18 in 6.2 mi South 19.6 mph - N/A   Scattered Clouds
9:30 PM 64.4 °F 62.6 °F 94% 30.21 in 6.2 mi South 20.7 mph - N/A   Scattered Clouds
10:00 PM 65 °F 62 °F 86% 30.22 in - South 18.4 mph - -  
10:00 PM 64.4 °F 62.6 °F 94% 30.21 in 6.2 mi South 18.4 mph - N/A   Scattered Clouds
10:30 PM 64.4 °F 60.8 °F 88% 30.21 in 6.2 mi South 19.6 mph - N/A   Scattered Clouds
11:00 PM 65 °F 62 °F 85% 30.22 in - South 17.3 mph - -  
11:00 PM 64.4 °F 60.8 °F 88% 30.21 in 6.2 mi South 17.3 mph - N/A   Partly Cloudy
11:30 PM 64.4 °F 60.8 °F 88% 30.21 in 6.2 mi South 15.0 mph - N/A   Partly Cloudy
11:51 PM 64.4 °F 60.8 °F 88% 30.21 in 6.2 mi South 17.3 mph - N/A   Mostly Cloudy